Live-Position
3D-Globus wird geladen...
Über Starlink 5722
Group: 3 satellites
Beschreibung wird geladen...
Nächste Überflüge
Passes for default location (London). Set your location on the main map for personalized predictions.
Höhenverlauf
Loading altitude history...
No altitude history available
Zweizeiliger Elementsatz
1 55610U 23020AT 26104.83184558 -.00000228 00000-0 12458-5 0 9997
2 55610 43.0005 150.3746 0001038 272.4473 87.6260 15.27574646174567
Epoch: 14. Apr. 2026 •
Age: 5 hours
Aktueller Status
Höhe 486.4 km
Geschwindigkeit 7.63 km/s
Subsatellitenpunkt 41.02°N,
0.83°W
Startdatum 12. Feb. 2023
Alter 3.1 years
Typ internet
Startgruppe
Falcon 9 •
Group 5-4 •
51 satellites
Starlink 5749
55569
Starlink 5737 55570
Starlink 5739 55571
Starlink 5732 55572
Starlink 5738 55573
Starlink 5747 55574
Starlink 5745 55575
Starlink 5751 55576
Starlink 5752 55577
Starlink 5754 55579
Starlink 5757 55580
Starlink 5753 55581
Starlink 5741 55582
Starlink 5742 55583
Starlink 5736 55584
Starlink 5769 55585
Starlink 5767 55586
Starlink 5727 55587
Starlink 5728 55588
Starlink 5697 55589
...and 30 more
Technische Details
Klassifizierung Payload
Masse 305.00 kg
Trockenmasse 290.00 kg
Gesamtmasse 305.00 kg
Länge 0.20 m
Durchmesser 2.80 m
Spannweite 9.00 m
Form Box + pan
Hersteller SPXS
Bus-Typ Starlink
Phasenstatus In Orbit
Besitzer/Staat SPXS/US
Most Searched
Loading...